Home   Weather   Changsha   Past weeks

Flag for China Past Weather in Changsha, Hunan, China — Yesterday and Last 2 Weeks

Now
48 °F

Fog.


Feels Like: 48 °F
Forecast: 49 / 66 °F
Wind: 1 mph from North

Location: Changsha

Current Time: Dec 4, 2016 at 11:59:35 am

Latest Report: Dec 4, 2016 at 11:00 am


Visibility: 1 mi

Pressure: 30.24 "Hg

Humidity: 100%

Dew Point: 48 °F

Location of ChangshaLocation

Past Weather in Changsha — Graph

°F

Changsha Temperature Yesterday

Maximum temperature yesterday: 55 °F (at 11:00 am)
Minimum temperature yesterday: 50 °F (at 2:00 am)
Average temperature yesterday: 52 °F

High & Low Weather Summary for the Past Weeks

 TemperatureHumidityPressure
High68 °F (Nov 19, 1:00 pm)100% (Nov 27, 5:00 am)30.57 "Hg (Nov 27, 5:00 am)
Low34 °F (Nov 23, 1:00 pm)34% (Nov 28, 3:00 pm)29.92 "Hg (Nov 19, 2:00 pm)
Average49 °F84%30.29 "Hg
* Reported Nov 19 10:00 am — Dec 4 10:00 am, Changsha, Weather by CustomWeather, © 2016

Note: Actual official high and low records may vary slightly from our data, if they occured in-between our weather recording intervals... More about our weather records

Advertising

Changsha Weather History for the Previous 24 Hours

Scroll right to see more
 ConditionsComfort  
Time TempWeatherWind HumidityBarometerVisibility
10:00 am
Sun, Dec 4
48 °FFog.1 mph100%30.27 "Hg1 mi
9:00 am48 °FFog.3 mph94%30.27 "Hg0 mi
8:00 am48 °FFog.1 mph94%30.24 "Hg1 mi
7:00 am48 °FFog.1 mph94%30.21 "Hg0 mi
6:00 am48 °FFog.1 mph94%30.21 "Hg0 mi
5:00 am46 °FFog.1 mph93%30.21 "Hg0 mi
4:00 am46 °FFog.1 mph93%30.21 "Hg0 mi
3:00 am46 °FFog.No wind93%30.21 "Hg1 mi
2:00 am48 °FFog.1 mph100%30.24 "Hg1 mi
1:00 am50 °FFog.3 mph94%30.21 "Hg1 mi
12:00 am52 °FFog.1 mph94%30.24 "Hg1 mi
11:00 pm
Sat, Dec 3
52 °FFog.1 mph88%30.24 "Hg2 mi
10:00 pm52 °FFog.3 mph88%30.24 "Hg1 mi
9:00 pm52 °FFog.1 mph94%30.27 "Hg1 mi
8:00 pm54 °FFog.3 mph88%30.27 "Hg1 mi
7:00 pm54 °FLight rain. Fog.3 mph82%30.24 "Hg2 mi
6:00 pm54 °FFog.3 mph82%30.24 "Hg2 mi
5:00 pm54 °FFog.3 mph82%30.24 "Hg2 mi
4:00 pm54 °FLight rain. Fog.3 mph82%30.24 "Hg1 mi
3:00 pm55 °FLight rain. Fog.3 mph77%30.24 "Hg1 mi
2:00 pm55 °FLight rain. Fog.3 mph72%30.24 "Hg2 mi
1:00 pm55 °FFog.3 mph77%30.27 "Hg1 mi
12:00 pm55 °FFog.3 mph77%30.30 "Hg2 mi
11:00 am55 °FFog.1 mph72%30.33 "Hg1 mi
Weather by CustomWeather, © 2016

See weather overviewHow to use our weather pages